Location: Allmend
(48.3854°N, 8.0698°E)
Time: 10:16:23
(UTC+00:00)

Daily predictions for brighter satellites

Satellite Brightness Start Highest point End
(mag) Time Altitude Azimuth Time Altitude Azimuth Time Altitude Azimuth
SL-16 R/B 4.4 16:03:53 10° N 16:08:41 24° NW 16:13:30 10° WSW
Cosmos 1340 Rocket 3.1 16:05:57 10° N 16:09:54 47° ENE 16:13:50 10° SSE
Cosmos 1464 Rocket 4.1 16:03:38 10° S 16:09:58 70° E 16:16:19 10° NNE
SJ 16-02 2.6 16:06:07 10° NNW 16:10:20 48° WSW 16:14:32 10° S
CZ-4C R/B 3.3 16:06:53 10° NNE 16:10:49 85° WNW 16:14:31 10° SSW
H-2A R/B 4.5 16:07:28 10° SSW 16:10:52 35° W 16:14:16 10° NNW
ISS -3.4 16:10:03 10° WNW 16:13:23 50° N 16:16:42 10° E
Cosmos 1606 2.7 16:12:52 10° S 16:16:39 90° NNW 16:20:27 10° N
CZ-2D R/B 4.4 16:14:21 10° ESE 16:17:22 22° ENE 16:20:22 10° NNE
Lacrosse 5 rocket 2.6 16:14:23 10° NW 16:17:32 24° N 16:20:49 10° ENE
Nadezhda 4 Rocket 4.0 16:11:20 10° N 16:17:40 69° E 16:23:58 10° SSE
Cosmos 2360 4.4 16:14:44 10° NNW 16:20:19 50° NE 16:25:52 10° SE
CZ-4B R/B 4.1 16:16:10 10° ESE 16:20:30 25° ENE 16:24:48 10° N
ADEOS 4.3 16:15:45 10° S 16:20:54 60° WSW 16:26:06 10° NNW
Meteor 1-20 Rocket 4.4 16:16:11 10° N 16:21:54 54° ENE 16:27:37 10° SSE
CZ-2C R/B 4.0 16:19:33 10° NE 16:22:53 17° E 16:26:11 10° SE
Cosmos 1500 Rocket 3.7 16:18:44 10° N 16:23:07 55° ENE 16:27:26 10° SSE
CZ-4C R/B 3.3 16:16:59 10° NW 16:23:20 40° NNE 16:30:50 10° ESE
Cosmos 540 Rocket 4.4 16:19:31 10° SSE 16:23:46 27° E 16:28:04 10° NE
CZ-4B R/B 2.9 16:23:20 10° SSE 16:27:25 89° WSW 16:31:19 10° NNW
Cosmos 1500 4.3 16:25:33 10° NNE 16:28:36 23° ENE 16:31:37 10° SE
SMAP 3.1 16:24:34 10° SSE 16:29:08 59° ENE 16:33:44 10° N
USA 305 3.6 16:25:19 10° W 16:29:20 41° N 16:32:56 12° ENE
CZ-2C R/B 3.1 16:26:21 10° S 16:31:16 79° WSW 16:36:05 10° NNW
Cosmos 1092 Rocket 4.1 16:26:09 10° N 16:32:24 54° ENE 16:38:35 10° SSE
Cosmos 468 Rocket 4.2 16:28:20 10° S 16:33:20 53° ESE 16:38:25 10° NNE
Cosmos 1898 Rocket 3.5 16:28:51 10° NNW 16:34:07 67° ENE 16:39:18 10° SSE
Cosmos 44 4.3 16:30:01 10° NW 16:34:36 48° WSW 16:38:55 10° SSE
Cosmos 1805 Rocket 3.9 16:30:31 10° N 16:34:40 43° ENE 16:38:47 10° SSE
Sich 1 3.6 16:31:21 10° N 16:35:18 34° ENE 16:39:14 10° SE
Cosmos 1933 3.8 16:32:56 10° SSE 16:36:43 40° E 16:40:30 10° NNE
Cosmos 2360 Rocket 4.1 16:37:16 10° N 16:38:57 11° NNE 16:40:27 10° NE
Cosmos 1842 Rocket 3.8 16:34:55 10° SSW 16:39:23 77° W 16:43:54 10° N
Cosmos 2221 2.9 16:35:15 10° SSW 16:39:29 66° WNW 16:43:48 10° N
PSLV R/B 3.9 16:38:57 10° SE 16:42:28 44° ENE 16:46:03 10° N
SL-08 R/B 3.9 16:40:23 10° N 16:45:03 58° WNW 16:49:36 10° SSW
Cosmos 2084 4.0 16:46:35 10° NW 16:50:51 65° SW 16:55:16 10° SSE
deb Chang Zheng 4 4.2 16:48:24 10° SE 16:52:16 33° ENE 16:56:10 10° N
AQUARIUS 4.1 16:48:15 10° SSE 16:52:44 83° ENE 16:57:15 10° NNW
Cosmos 1627 Rocket 4.4 16:46:59 10° N 16:53:09 65° ENE 16:59:13 10° SSE
H-2A R/B 2.1 16:50:06 10° SSE 16:55:08 55° ENE 17:00:04 10° N
Cosmos 2034 Rocket 4.1 16:50:04 10° SSW 16:56:13 78° W 17:02:25 10° N
NOSS 2-2 (C) 4.2 16:52:24 10° NW 16:57:20 64° NE 17:04:14 10° SE
ERBS 3.8 16:55:26 10° WNW 16:58:08 25° NNW 16:59:46 17° NNE
Cosmos 1666 3.5 16:55:07 10° NNE 16:58:19 27° ENE 17:01:30 10° SE
Cosmos 2322 Rocket 3.6 16:55:04 10° N 16:58:58 18° NE 17:00:05 18° NE
USA 306 3.7 16:57:33 10° WNW 17:01:33 38° N 17:03:44 22° NE
Cosmos 2279 Rocket 4.4 16:56:45 10° SSE 17:02:25 39° E 17:08:05 10° NNE
Cosmos 1697 Rocket 2.8 16:57:01 10° NNW 17:02:40 81° WSW 17:08:17 10° SSE
USA 267 3.3 16:58:13 16° NE 17:03:40 79° NNW 17:10:12 10° WSW
Cosmos 2369 3.6 17:00:17 10° NNW 17:06:03 75° ENE 17:11:46 10° SSE
Cosmos 1980 Rocket 2.2 17:00:54 10° NNW 17:06:33 62° ENE 17:12:07 10° SE
COSMO-SKYMED 1 3.2 17:05:08 19° NE 17:07:37 35° E 17:11:36 10° SSE
MOS 1-B Rocket 4.2 17:02:08 10° NNE 17:07:53 54° ESE 17:14:19 10° S
Cosmos 1763 Rocket 3.5 17:03:06 10° SSW 17:08:10 77° WNW 17:13:19 10° NNE
Cosmos 1939 Rocket 3.9 17:04:56 10° S 17:08:56 50° W 17:12:57 10° NNW
Meteor 1-25 Rocket 4.5 17:05:49 10° NNW 17:11:22 71° W 17:16:56 10° S
SL-24 R/B - RUBIN 2 3.5 17:06:55 10° NW 17:11:31 69° NE 17:15:47 10° SE
Meteor 2-21 4.3 17:06:08 10° N 17:12:17 79° E 17:18:19 10° SSE
Cosmos 841 Rocket 3.5 17:08:36 10° S 17:13:38 56° ESE 17:17:15 19° NE
Cosmos 1812 3.1 17:11:47 10° SSE 17:15:23 40° E 17:16:31 31° NE
Cosmos 1937 Rocket 3.7 17:10:19 10° NNW 17:15:40 79° WSW 17:20:58 10° SSE
SL-16 R/B 3.1 17:11:35 10° NNW 17:16:22 27° NE 17:17:26 25° ENE
Cosmos 1125 Rocket 4.4 17:12:27 10° N 17:16:49 26° NE 17:17:07 26° ENE
Cosmos 1634 Rocket 3.9 17:11:33 10° S 17:17:51 77° E 17:24:13 10° NNE
Cosmos 1633 Rocket 3.3 17:14:26 10° N 17:18:38 44° ENE 17:22:49 10° SSE
USA 307 3.7 17:15:54 10° WNW 17:19:55 38° N 17:21:20 29° NE
USA 229 DEB 4.5 17:13:21 10° NW 17:20:34 61° WSW 17:28:12 10° SSE
YAOGAN 1 4.0 17:22:20 21° NNE 17:22:20 21° NNE 17:24:21 10° N
USA 229 4.5 17:13:27 10° NW 17:20:40 62° WSW 17:28:18 10° SSE
Cosmos 2082 Rocket 2.3 17:15:41 10° S 17:21:11 53° ESE 17:24:27 24° NE
Cosmos 2026 Rocket 4.0 17:17:57 10° N 17:24:08 80° W 17:30:11 10° S
Cosmos 2333 Rocket 4.1 17:21:54 10° N 17:24:11 13° NNE 17:24:11 13° NNE
ATLAS 2AS CENTAUR R/B 4.3 17:23:34 10° WNW 17:29:41 25° N 17:33:27 17° NE
Okean O Rocket 1.5 17:25:34 10° SSE 17:29:58 65° ENE 17:34:25 10° N
Cosmos 372 Rocket 3.9 17:24:44 10° NNW 17:30:00 90° NNE 17:35:15 10° SSE
Cosmos 2278 3.6 17:24:48 10° NNW 17:30:32 68° ENE 17:36:11 10° SE
ATLAS CENTAUR R/B 3.9 17:31:57 10° NW 17:34:12 14° NNW 17:36:14 11° N
Cosmos 1151 Rocket 2.9 17:32:00 10° S 17:36:16 64° E 17:38:07 32° NNE
Cosmos 1782 3.1 17:32:22 10° SSW 17:36:20 68° W 17:39:44 14° N
Cosmos 1655 Rocket 4.2 17:30:26 10° N 17:36:36 47° ENE 17:42:43 10° SSE
USA 234 4.2 17:31:59 10° SSE 17:38:14 48° SW 17:44:32 10° WNW
COSMOS 2406 3.3 17:33:07 10° SSW 17:38:53 76° WNW 17:43:04 19° NNE
COSMOS 2455 2.8 17:34:41 10° SSW 17:40:42 79° ESE 17:43:55 29° NE
USA 308 3.6 17:38:27 10° WNW 17:42:29 39° N 17:42:51 38° NNE
Cosmos 1666 Rocket 3.5 17:39:05 10° N 17:43:34 86° W 17:47:58 10° S
ARGOS 3.1 17:38:16 10° SSE 17:43:41 86° ENE 17:49:08 10° NNW
Cosmos 1833 Rocket 3.3 17:40:01 10° SW 17:45:30 54° WNW 17:49:48 17° NNE
Cosmos 1470 Rocket 4.5 17:42:19 10° N 17:45:01 33° NNE 17:45:01 33° NNE
Cosmos 2180 Rocket 4.4 17:42:26 10° S 17:48:42 66° E 17:54:55 10° NNE
ISS -3.4 17:46:56 10° WNW 17:50:10 63° SW 17:50:10 63° SW
Meteor 2-6 Rocket 4.2 17:44:46 10° S 17:50:27 63° E 17:53:25 28° NNE
Cosmos 1328 Rocket 3.5 17:46:13 10° S 17:50:37 65° E 17:50:52 63° ENE
Cosmos 2219 Rocket 4.2 17:50:52 10° N 17:52:22 13° NNE 17:52:22 13° NNE
SKYMED 2 3.6 17:53:45 31° N 17:55:49 78° WNW 18:00:09 10° SSW
CZ-4 R/B 3.9 17:59:49 12° N 17:59:49 12° N 18:00:05 10° N
Lacrosse 5 rocket 1.9 17:53:26 10° NW 17:56:31 44° N 17:56:31 44° N
Landsat 5 3.3 18:00:26 78° SSE 18:00:26 78° SSE 18:04:13 10° SSW
NOAA 15 4.5 17:55:06 10° SSE 18:00:21 69° ENE 18:05:36 10° N
Cosmos 2298 Rocket 4.0 17:55:08 10° NNW 18:00:25 59° ENE 18:00:27 59° ENE
CZ-4B R/B 3.8 17:55:24 10° S 18:00:44 57° WSW 18:06:01 10° NNW
Cosmos 1570 Rocket 3.8 17:55:49 10° SSW 18:01:02 76° ESE 18:02:05 57° NE
Meteor 2-8 Rocket 4.3 17:55:43 10° S 18:01:50 78° E 18:08:02 10° NNE
ATLAS CENTAUR R/B 2.6 17:54:30 10° WSW 18:02:32 60° NW 18:03:22 50° N
SL-08 RB Rocket 3.7 17:58:53 10° SSE 18:03:31 86° WSW 18:08:11 10° NNW
GEOS 3 Rocket 3.5 18:02:08 49° SE 18:03:36 82° NE 18:08:49 10° NW
CZ-2C R/B 2.7 17:59:22 15° N 18:03:47 73° WNW 18:08:55 10° SSW
Cosmos 540 Rocket 4.4 18:00:16 10° SW 18:05:09 45° WNW 18:08:24 20° N
Meteor 1-11 Rocket 3.6 18:02:29 10° N 18:07:51 61° ENE 18:07:51 61° ENE
Cosmos 1818 3.4 18:02:52 10° NW 18:08:23 77° NE 18:09:03 67° ESE
Meteor 1-10 Rocket 4.1 18:02:47 10° S 18:08:31 65° E 18:09:02 61° ENE
Cosmos 1814 Rocket 3.9 18:03:33 10° SSW 18:08:47 84° WNW 18:10:08 51° NNE
USA 305 3.8 18:05:44 10° WNW 18:08:56 38° NNW 18:08:56 38° NNW
Cosmos 44 Rocket 3.2 18:07:11 10° NW 18:11:47 73° N 18:11:47 73° N
CZ-4C R/B 3.1 18:05:20 10° NW 18:12:32 76° SW 18:20:10 13° SSE
Feng Yun 1-1 Rocket 4.5 18:13:35 10° S 18:19:30 76° WSW 18:25:25 10° NNW
Cosmos 2360 Rocket 3.6 18:19:28 10° NNW 18:22:13 25° N 18:22:13 25° N
Cosmos 2208 Rocket 4.1 18:28:25 10° SSW 18:33:46 75° WNW 18:33:46 75° WNW
H-2A R/B 4.4 18:30:52 10° SW 18:34:53 22° W 18:38:50 10° NW
COSMO-SKYMED 1 4.5 18:42:21 23° NW 18:43:41 28° WNW 18:47:21 10° WSW
Cosmos 2322 Rocket 3.1 18:38:19 10° NNW 18:41:55 40° NNW 18:41:55 40° NNW
USA 267 3.8 18:45:34 44° N 18:46:17 45° N 18:52:25 10° W
Cosmos 1980 Rocket 4.3 18:45:39 10° NW 18:50:06 24° WSW 18:54:30 10° SSW
SL-16 R/B 3.0 18:55:20 10° NNW 18:59:20 45° NW 18:59:20 45° NW
Cosmos 2082 Rocket 3.6 19:00:30 10° WSW 19:05:33 32° NW 19:06:20 31° NNW
Cosmos 2333 Rocket 4.3 19:04:54 10° NNW 19:06:12 17° NNW 19:06:12 17° NNW
ATLAS 2AS CENTAUR R/B 4.2 19:16:28 10° NW 19:20:53 27° N 19:20:53 27° N
COSMOS 2455 4.4 19:22:09 10° W 19:27:05 28° NW 19:27:05 28° NW
